CAPE
0 0 0 0 0 0 0 53 127 49 54 90 116 17 99 75 0 0 18 6 0 0 0 0 0 0 0 0 0 0 0 0 0 3 1 1 2 0 0 0 0 0 5
0 0 0 0 0 0 0 0 20 164 47 11 102 79 30 7 11 18 8 2 0 0 0 0 0 0 0 0 0 0 0 0 0 0 2 2 0 0 0 0 0 0 0
0 0 0 0 0 0 1 0 0 190 61 2 62 60 54 5 7 11 6 0 0 0 0 0 0 0 0 0 0 0 0 1 2 2 2 0 0 0 0 0 0 0 0
0 0 0 0 0 0 0 0 17 76 39 0 6 16 5 5 21 16 1 1 0 0 0 0 0 0 0 0 0 0 2 1 1 0 0 0 0 0 0 0 0 0 0
0 0 0 0 0 0 1 0 2 60 0 11 27 12 6 5 23 1 1 1 0 0 0 0 0 0 0 0 0 1 0 0 0 0 0 0 0 0 0 0 0 0 0
0 0 0 0 0 0 0 0 0 4 2 48 18 18 31 10 3 1 1 0 0 0 0 3 3 3 3 2 1 0 0 0 0 0 0 0 0 0 0 0 0 0 0
0 0 0 0 0 0 0 2 0 12 7 57 16 12 1 3 1 0 0 1 0 0 0 0 0 0 0 0 0 0 0 0 0 0 0 0 0 0 0 0 0 0 0
0 0 0 0 0 0 0 1 0 2 36 13 8 2 2 3 2 0 0 0 0 0 0 0 0 0 0 0 0 0 0 0 0 0 0 0 0 0 0 0 0 0 0
0 0 0 0 0 1 1 1 0 3 2 2 2 2 3 5 0 0 0 0 0 0 0 0 0 0 0 0 0 0 0 0 0 0 0 0 0 0 0 0 0 0 0
0 0 0 0 0 3 3 0 8 2 2 2 3 4 3 4 0 0 0 0 0 0 0 0 0 0 0 0 0 0 0 0 0 0 0 0 0 0 0 0 0 0 0
0 0 0 0 0 0 3 1 2 2 2 3 4 4 2 0 0 0 0 0 0 0 0 0 0 0 0 0 0 0 0 0 0 0 0 0 0 0 0 0 0 0 0
2 0 0 0 0 0 1 3 3 0 4 5 6 3 1 0 0 0 0 0 0 0 0 0 0 0 0 0 0 0 0 0 0 0 0 0 0 0 0 0 0 0 0
1 1 0 0 0 1 1 3 4 3 4 3 4 4 1 0 0 0 0 0 0 0 0 0 0 0 0 0 0 0 0 0 0 0 0 0 0 0 0 0 0 0 0
2 3 0 0 0 1 1 2 3 2 4 3 4 4 2 1 0 0 0 0 0 0 0 0 0 0 0 0 0 0 0 0 0 0 0 0 0 0 0 0 0 0 0
7 2 0 0 1 1 1 3 3 2 0 1 3 1 1 2 0 0 0 0 0 0 0 0 0 0 0 0 0 0 0 0 0 0 0 0 0 0 0 0 0 0 0
3 1 0 0 1 1 1 0 1 2 2 0 0 0 0 0 0 0 0 0 0 0 0 0 0 0 0 0 0 0 0 0 0 0 0 0 0 0 0 0 0 0 0
0 0 0 1 1 1 3 1 1 1 2 1 2 0 0 0 0 0 0 0 0 0 0 0 0 0 0 0 0 0 0 0 0 0 0 0 0 0 0 0 0 0 0
0 0 1 2 2 2 3 2 2 3 3 3 2 1 0 0 0 0 0 0 0 0 0 0 0 0 0 0 0 0 0 0 0 0 0 0 0 0 0 0 0 0 0
0 2 1 2 2 2 2 2 2 3 3 2 2 1 1 1 0 0 0 0 0 0 0 0 0 0 0 0 0 0 0 0 0 0 0 0 0 0 0 0 0 0 0
1 0 1 2 2 2 2 2 2 3 3 2 2 1 1 0 0 0 0 0 0 0 0 0 0 0 0 0 0 0 0 0 0 0 0 0 0 0 0 0 0 0 0
1 1 1 2 2 1 2 2 2 2 3 1 1 0 0 0 0 0 0 0 0 0 0 0 0 0 0 0 0 0 0 0 0 0 0 0 0 0 0 0 0 0 0
2 2 1 2 1 1 1 1 1 2 0 0 0 0 0 0 0 0 0 0 0 0 0 0 0 0 0 0 0 0 0 0 0 0 0 0 0 0 0 0 0 0 0
2 2 2 2 1 2 1 2 2 0 0 0 0 0 0 0 0 0 0 0 0 0 0 0 0 0 0 0 0 0 0 0 0 0 0 0 0 0 0 0 0 0 0
1 1 1 2 1 1 2 2 0 0 0 0 0 0 0 0 0 0 0 0 0 0 0 0 0 0 0 0 0 0 0 0 0 0 0 0 0 0 0 0 0 0 0
1 1 2 2 2 2 2 3 0 0 0 0 0 0 0 0 0 0 0 0 0 0 0 0 0 0 0 0 0 0 0 0 0 0 0 0 0 0 0 0 0 0 0
1 2 1 2 3 2 2 1 0 0 0 0 0 0 0 0 0 0 0 0 0 0 0 0 0 0 0 0 0 0 0 0 0 0 0 0 0 0 0 0 0 0 0
CIN
-0 -0 -0 -0 -0 -0 -0 -102 -121 -204 -236 -184 -109 -181 -59 -49 -0 -0 -45 -37 -37 -0 -0 -0 -0 -0 -0 -0 -0 -0 -0 -0 -0 -0 -0 -0 -0 -0 -0 -0 -0 -0 -1
-0 -0 -0 -0 -0 -0 -0 -0 -39 -131 -194 -229 -73 -35 -51 -42 -20 -33 -31 -38 -0 -0 -0 -0 -0 -0 -0 -0 -0 -0 -0 -0 -0 -0 -0 -0 -0 -0 -0 -0 -0 -0 -0
-0 -0 -0 -0 -0 -0 -0 -0 -0 -101 -148 -269 -86 -49 -40 -9 -21 -26 -38 -0 -0 -0 -0 -0 -0 -0 -0 -0 -0 -0 -0 -0 -0 -0 -0 -0 -0 -0 -0 -0 -0 -0 -0
-0 -0 -0 -0 -0 -0 -0 -0 -182 -98 -132 -1 -64 -53 -9 -3 -13 -19 -20 -0 -0 -0 -0 -0 -0 -0 -0 -0 -0 -0 -0 -0 -0 -0 -0 -0 -0 -0 -0 -0 -0 -0 -0
-0 -0 -0 -0 -0 -0 -0 -0 -29 -62 -9 -73 -3 -1 -0 -4 -16 -16 -3 -0 -0 -0 -0 -0 -0 -0 -0 -0 -0 -0 -0 -0 -0 -0 -0 -0 -0 -0 -0 -0 -0 -0 -0
-0 -0 -0 -0 -0 -0 -0 -0 -0 -27 -1 -0 -3 -2 -1 -2 -50 -0 -0 -0 -0 -0 -0 -0 -0 -0 -0 -0 -0 -0 -0 -0 -0 -0 -0 -0 -0 -0 -0 -0 -0 -0 -0
-0 -0 -0 -0 -0 -0 -0 -0 -0 -14 -7 -0 -1 -7 -0 -45 -0 -0 -0 -0 -0 -0 -0 -0 -0 -0 -0 -0 -0 -0 -0 -0 -0 -0 -0 -0 -0 -0 -0 -0 -0 -0 -0
-0 -0 -0 -0 -0 -0 -0 -0 -0 -6 -1 -15 -20 -8 -12 -0 -0 -0 -0 -0 -0 -0 -0 -0 -0 -0 -0 -0 -0 -0 -0 -0 -0 -0 -0 -0 -0 -0 -0 -0 -0 -0 -0
-0 -0 -0 -0 -0 -0 -0 -0 -0 -7 -1 -0 -0 -0 -0 -0 -0 -0 -0 -0 -0 -0 -0 -0 -0 -0 -0 -0 -0 -0 -0 -0 -0 -0 -0 -0 -0 -0 -0 -0 -0 -0 -0
-0 -0 -0 -0 -0 -0 -0 -0 -7 -0 -0 -0 -0 -0 -0 -0 -0 -0 -0 -0 -0 -0 -0 -0 -0 -0 -0 -0 -0 -0 -0 -0 -0 -0 -0 -0 -0 -0 -0 -0 -0 -0 -0
-0 -0 -0 -0 -0 -0 -0 -0 -0 -0 -0 -0 -0 -0 -0 -0 -0 -0 -0 -0 -0 -0 -0 -0 -0 -0 -0 -0 -0 -0 -0 -0 -0 -0 -0 -0 -0 -0 -0 -0 -0 -0 -0
-5 -0 -0 -0 -0 -0 -0 -0 -0 -0 -0 -0 -0 -0 -0 -0 -0 -0 -0 -0 -0 -0 -0 -0 -0 -0 -0 -0 -0 -0 -0 -0 -0 -0 -0 -0 -0 -0 -0 -0 -0 -0 -0
-1 -1 -1 -0 -0 -0 -0 -0 -0 -0 -0 -0 -0 -0 -0 -0 -0 -0 -0 -0 -0 -0 -0 -0 -0 -0 -0 -0 -0 -0 -0 -0 -0 -0 -0 -0 -0 -0 -0 -0 -0 -0 -0
-1 -2 -0 -0 -0 -0 -0 -0 -0 -0 -0 -0 -0 -0 -0 -0 -0 -0 -0 -0 -0 -0 -0 -0 -0 -0 -0 -0 -0 -0 -0 -0 -0 -0 -0 -0 -0 -0 -0 -0 -0 -0 -0
-0 -1 -0 -0 -0 -0 -0 -0 -0 -0 -0 -0 -0 -0 -0 -0 -0 -0 -0 -0 -0 -0 -0 -0 -0 -0 -0 -0 -0 -0 -0 -0 -0 -0 -0 -0 -0 -0 -0 -0 -0 -0 -0
-0 -1 -0 -0 -0 -0 -0 -0 -0 -0 -0 -0 -0 -0 -0 -0 -0 -0 -0 -0 -0 -0 -0 -0 -0 -0 -0 -0 -0 -0 -0 -0 -0 -0 -0 -0 -0 -0 -0 -0 -0 -0 -0
-0 -0 -0 -0 -0 -0 -0 -0 -0 -0 -0 -0 -0 -0 -0 -0 -0 -0 -0 -0 -0 -0 -0 -0 -0 -0 -0 -0 -0 -0 -0 -0 -0 -0 -0 -0 -0 -0 -0 -0 -0 -0 -0
-0 -0 -0 -0 -0 -0 -0 -0 -0 -0 -0 -0 -0 -0 -0 -0 -0 -0 -0 -0 -0 -0 -0 -0 -0 -0 -0 -0 -0 -0 -0 -0 -0 -0 -0 -0 -0 -0 -0 -0 -0 -0 -0
-0 -0 -0 -0 -0 -0 -0 -0 -0 -0 -0 -0 -0 -0 -0 -0 -0 -0 -0 -0 -0 -0 -0 -0 -0 -0 -0 -0 -0 -0 -0 -0 -0 -0 -0 -0 -0 -0 -0 -0 -0 -0 -0
-0 -0 -0 -0 -0 -0 -0 -0 -0 -0 -0 -0 -0 -0 -0 -0 -0 -0 -0 -0 -0 -0 -0 -0 -0 -0 -0 -0 -0 -0 -0 -0 -0 -0 -0 -0 -0 -0 -0 -0 -0 -0 -0
-0 -0 -0 -0 -0 -0 -0 -0 -0 -0 -0 -0 -0 -0 -0 -0 -0 -0 -0 -0 -0 -0 -0 -0 -0 -0 -0 -0 -0 -0 -0 -0 -0 -0 -0 -0 -0 -0 -0 -0 -0 -0 -0
-0 -0 -0 -0 -0 -0 -0 -0 -0 -0 -0 -0 -0 -0 -0 -0 -0 -0 -0 -0 -0 -0 -0 -0 -0 -0 -0 -0 -0 -0 -0 -0 -0 -0 -0 -0 -0 -0 -0 -0 -0 -0 -0
-0 -0 -0 -0 -0 -0 -0 -0 -0 -0 -0 -0 -0 -0 -0 -0 -0 -0 -0 -0 -0 -0 -0 -0 -0 -0 -0 -0 -0 -0 -0 -0 -0 -0 -0 -0 -0 -0 -0 -0 -0 -0 -0
-0 -0 -0 -0 -0 -0 -0 -0 -0 -0 -0 -0 -0 -0 -0 -0 -0 -0 -0 -0 -0 -0 -0 -0 -0 -0 -0 -0 -0 -0 -0 -0 -0 -0 -0 -0 -0 -0 -0 -0 -0 -0 -0
-0 -0 -0 -0 -0 -0 -0 -0 -0 -0 -0 -0 -0 -0 -0 -0 -0 -0 -0 -0 -0 -0 -0 -0 -0 -0 -0 -0 -0 -0 -0 -0 -0 -0 -0 -0 -0 -0 -0 -0 -0 -0 -0
-0 -0 -0 -0 -0 -0 -0 -0 -0 -0 -0 -0 -0 -0 -0 -0 -0 -0 -0 -0 -0 -0 -0 -0 -0 -0 -0 -0 -0 -0 -0 -0 -0 -0 -0 -0 -0 -0 -0 -0 -0 -0 -0
Wind_Speed
31 32 33 34 34 33 30 29 25 19 14 12 12 9 6 4 2 2 13 19 13 7 4 1 2 3 4 4 5 6 8 8 9 9 12 15 17 17 19 20 22 23 24
33 33 33 32 32 31 29 29 26 19 16 15 13 6 2 3 5 7 18 18 10 6 3 2 2 4 5 6 7 7 8 8 9 10 11 13 15 17 19 21 22 24 25
33 32 32 31 31 30 29 29 27 24 19 20 17 8 3 6 8 14 17 13 8 6 4 3 4 6 7 8 8 8 9 10 10 12 12 13 15 17 19 21 22 23 24
34 32 30 29 30 30 28 27 26 22 15 16 10 5 3 11 12 18 16 11 8 7 5 5 4 6 8 8 7 9 11 12 13 14 15 15 15 17 18 19 22 24 24
33 31 30 28 29 28 26 26 24 19 12 12 7 6 4 11 20 20 14 11 11 8 6 3 5 8 8 7 9 11 13 16 15 15 15 15 15 16 18 19 20 22 25
32 31 30 28 27 26 26 26 26 25 22 17 9 5 12 25 18 16 13 13 11 9 7 7 9 8 9 11 11 13 17 17 16 15 15 15 16 17 18 19 19 22 24
32 31 30 28 27 26 27 28 28 29 36 11 12 16 19 18 19 18 16 13 10 9 9 10 8 8 10 11 13 14 15 17 17 17 18 18 19 18 18 20 21 22 22
32 31 30 28 27 27 29 29 30 30 11 19 19 17 17 18 18 19 17 12 10 9 7 7 10 10 10 15 16 17 19 20 21 21 22 23 23 22 22 22 23 24 24
33 32 29 27 26 26 28 28 30 24 14 21 18 16 20 18 18 19 15 11 10 8 5 6 10 12 17 19 19 21 21 23 24 25 26 26 26 25 24 24 24 25 27
33 32 28 27 25 26 23 20 20 16 14 15 18 19 19 17 19 18 16 13 12 9 7 8 8 16 19 20 23 24 24 24 25 26 28 29 29 31 31 27 24 27 25
31 30 28 26 25 24 20 19 12 12 14 17 20 18 17 16 16 15 15 14 13 11 9 7 6 17 21 23 24 24 25 26 27 28 29 30 31 32 33 33 32 31 30
30 29 27 25 23 21 18 14 11 11 16 23 24 18 16 14 14 14 14 14 12 14 10 8 17 21 24 25 25 26 27 27 27 28 29 31 31 32 33 33 32 32 31
30 27 26 24 21 18 20 18 10 16 20 21 20 18 15 12 12 16 17 16 13 12 10 18 24 26 26 25 26 27 27 26 27 29 30 30 31 31 31 31 31 31 31
31 27 27 24 20 19 21 28 13 23 24 22 19 18 16 14 13 13 13 14 15 15 21 20 23 23 23 25 26 26 27 27 28 29 30 30 30 31 33 32 33 32 31
31 28 28 25 22 19 22 20 21 26 21 20 17 16 16 15 16 16 16 14 12 15 20 20 22 23 25 27 27 27 27 28 29 29 30 30 31 32 33 33 33 33 33
32 30 29 27 23 18 16 15 18 16 16 16 15 14 16 16 18 17 17 15 19 23 19 26 27 27 28 28 28 28 28 29 29 30 30 30 31 32 33 32 32 33 33
35 31 32 30 19 19 17 16 17 14 15 14 14 16 17 19 18 18 19 19 15 17 24 30 30 29 28 28 28 28 29 29 29 30 30 30 31 31 31 31 31 31 32
33 31 26 24 24 21 18 14 16 17 15 15 16 17 18 19 18 17 16 13 11 9 30 31 31 30 29 29 29 29 29 29 29 30 30 30 31 31 31 31 31 31 32
30 30 25 22 22 18 17 14 14 15 16 18 19 18 18 18 17 14 14 12 27 34 33 32 31 30 30 29 29 29 29 30 29 30 30 30 29 30 31 30 30 32 32
25 26 27 25 24 19 17 14 17 18 19 21 20 19 20 19 19 19 22 19 28 35 34 32 31 31 30 30 30 30 30 30 30 30 30 29 29 29 30 30 30 31 31
22 24 24 23 20 18 16 19 18 23 24 23 21 26 25 24 20 22 30 33 35 36 34 33 32 32 31 31 31 30 30 30 30 30 29 29 28 29 29 29 29 30 30
21 25 22 24 18 20 25 23 26 27 22 20 23 25 24 22 21 25 28 29 38 36 34 33 33 32 32 32 31 31 31 30 30 29 29 28 29 28 28 28 29 29 29
23 21 17 19 22 25 26 25 29 23 21 22 25 25 26 23 22 25 30 36 38 36 34 33 33 33 32 31 30 30 31 30 29 29 29 28 28 27 27 27 27 28 28
24 23 18 20 19 22 24 26 25 23 23 24 25 27 27 23 23 26 32 37 38 36 34 34 34 33 33 32 31 29 29 29 29 28 28 28 28 27 27 27 27 27 28
22 20 21 24 23 24 28 27 25 24 25 27 25 27 26 25 25 27 33 38 38 36 35 34 34 33 33 32 31 30 30 30 29 29 28 28 28 28 27 28 28 27 27
21 24 27 23 24 23 24 24 25 25 25 26 25 26 26 28 28 31 34 39 38 36 35 35 34 34 33 32 31 31 31 30 29 29 28 28 28 28 27 28 28 27 27
Wind_Direction
301 296 295 294 296 298 291 295 299 298 296 286 281 279 287 282 260 188 197 215 206 200 217 234 333 21 29 34 51 25 13 30 47 17 9 8 11 15 17 18 17 17 17
306 301 294 289 291 290 291 288 289 288 283 287 290 304 214 258 149 186 198 205 178 166 170 124 62 50 36 31 35 25 34 26 65 60 31 20 22 26 23 20 14 14 13
312 301 293 291 290 290 286 284 278 273 280 280 282 289 234 205 156 195 196 191 168 148 150 116 86 69 55 44 39 36 38 54 59 64 53 43 38 31 25 17 13 10 9
311 305 291 289 289 282 282 284 277 279 279 275 291 297 229 159 157 188 182 162 144 131 115 94 70 56 59 49 34 50 58 61 71 63 62 54 41 29 24 20 13 11 9
305 301 291 282 283 279 284 284 286 278 260 265 272 258 174 146 184 176 162 144 129 123 108 91 55 57 47 33 52 62 70 77 72 69 59 49 42 31 23 22 19 17 12
301 297 294 288 281 282 275 281 272 254 237 239 229 191 166 185 154 143 141 133 127 123 114 80 65 59 53 61 60 62 77 83 77 60 54 49 39 35 35 26 21 6 1
299 297 294 285 281 280 279 274 258 234 213 230 211 196 188 165 133 123 122 127 132 120 98 85 71 62 65 70 61 52 46 48 56 63 58 49 46 43 34 24 18 12 9
295 294 292 282 278 281 281 273 237 222 189 214 194 167 160 149 130 120 120 136 124 107 91 86 83 83 78 75 67 57 54 48 51 55 55 52 49 46 39 35 30 27 22
290 291 287 277 270 280 281 267 234 211 181 193 165 152 148 143 129 123 128 125 116 102 107 105 93 86 84 81 74 73 63 59 57 56 54 54 50 45 41 36 29 22 18
285 286 279 267 261 279 260 262 214 180 172 178 155 148 147 136 132 128 122 118 114 116 124 104 95 82 82 81 83 82 73 67 64 57 51 48 45 41 37 38 36 29 28
274 277 271 261 262 280 249 209 192 180 168 146 153 152 147 138 129 127 122 122 121 125 119 130 99 80 82 86 83 77 76 77 67 62 57 52 47 43 42 41 42 43 39
267 266 260 251 257 259 228 196 177 139 149 153 152 147 153 135 137 124 122 121 123 117 123 120 87 86 88 86 79 79 78 75 69 62 57 53 50 48 48 47 49 49 49
256 254 246 235 256 242 207 193 185 169 159 152 148 143 140 140 135 118 119 116 120 118 127 94 93 93 90 81 81 80 78 74 69 63 60 58 57 57 56 54 56 55 53
243 244 231 239 225 211 196 188 172 166 161 159 150 142 144 148 147 140 137 127 116 106 99 93 91 88 82 81 79 78 76 73 69 67 66 65 64 59 56 59 57 59 55
231 226 219 221 216 204 185 185 178 172 162 155 149 138 157 162 168 157 138 139 144 111 100 93 91 88 87 86 82 79 77 74 71 71 69 67 64 61 60 63 62 60 58
215 212 207 197 194 198 194 175 173 167 157 150 128 138 166 142 133 129 126 124 110 106 98 100 100 98 97 93 88 84 80 78 75 75 72 70 69 68 64 66 67 64 61
200 200 193 192 202 188 179 166 164 153 159 152 138 151 131 128 133 128 119 112 112 101 99 107 106 105 100 96 92 88 85 83 81 78 75 74 74 73 70 68 69 67 65
190 191 194 189 187 185 180 168 167 164 156 157 160 144 140 138 136 131 124 127 159 127 109 110 109 106 102 99 95 92 89 87 84 81 79 79 78 77 73 73 73 72 70
184 183 185 184 183 183 179 167 163 159 155 150 157 152 151 148 144 139 172 167 109 117 116 112 111 107 105 101 99 96 94 91 88 85 85 83 82 81 78 78 78 76 76
184 183 182 183 181 179 176 165 165 162 162 166 165 164 165 166 176 180 181 181 109 123 120 116 113 110 108 106 104 101 96 94 93 91 89 87 87 85 84 82 82 80 80
184 184 183 183 183 182 177 171 168 172 171 171 172 179 180 181 180 181 176 171 124 127 123 119 116 116 113 112 109 104 101 101 101 98 95 94 94 92 91 88 87 86 85
185 181 184 184 183 183 181 178 175 173 170 168 176 180 182 182 182 181 177 175 142 131 126 121 121 121 119 118 114 109 109 110 110 108 105 103 99 98 97 94 92 90 89
186 187 189 185 182 179 179 179 178 176 175 175 180 181 182 183 183 181 176 162 139 130 127 125 125 123 125 124 121 117 117 119 118 114 110 107 104 103 102 99 97 95 93
191 189 189 188 188 187 184 181 181 180 180 181 182 183 183 184 183 181 175 161 141 132 129 129 129 127 128 127 127 130 128 124 119 116 113 109 107 106 104 102 100 99 97
197 199 196 189 189 186 184 183 184 185 184 184 184 184 184 185 184 182 174 159 141 133 130 131 132 131 131 131 132 135 129 122 121 118 116 112 109 108 106 104 103 102 101
199 193 190 195 191 188 186 186 188 187 186 186 186 186 186 186 186 183 175 156 143 134 130 133 134 135 135 140 141 135 130 126 123 121 119 116 112 110 109 106 105 104 103